小惑星A/2020 H9

A/2020 H9

English version
Home page
Updated on March 15, 2022

---------------------------------------------------------------------

・ プロフィール

発見日 2020年4月28日
発見光度 21.85等
発見者 Pan-STARRS 1 telescope (Haleakala)

・ 軌道要素

Epoch 2022 Jan. 21.0 TT = JDT 2459600.5                                         
T 2019 Dec. 21.29089 TT                                 Rudenko                 
q   2.5780373            (2000.0)            P               Q                  
z  +0.0027373      Peri.  312.86239     -0.27227251     -0.88955728             
 +/-0.0000021      Node   213.14948     -0.56326493     -0.16173082             
e   0.9929432      Incl.  137.87006     -0.78012839     +0.42723646             
H   18.0                                                                        
From 53 observations 2019 Aug. 9-2020 July 22, mean residual 0".2.              

・ 光度変化

        H = 17.5  G = 0.15

---------------------------------------------------------------------

軌道要素はM.P.E.C. 2022-E133に掲載されたものです。
光度グラフはComet for Windowsで作成したものです。

---------------------------------------------------------------------

Copyright(C) Seiichi Yoshida (comet@aerith.net). All rights reserved.